* Astronomy

Members Login
Username 
 
Password 
    Remember Me  
Post Info TOPIC: Asteroid 2009 HV67


L

Posts: 131433
Date:
Asteroid 2009 HV67
Permalink  
 


Orbital elements:
2009 HV67 Earth MOID = 0.2228 AU
Epoch 2009 Apr. 19.0 TT = JDT 2454940.5 MPC
M 346.85570 (2000.0) P Q
n 0.18630047 Peri. 79.45090 +0.10761875 +0.97891822
a 3.0361747 Node 199.49506 -0.98564788 +0.12789838
e 0.7037522 Incl. 31.34506 +0.13006326 +0.15925179
P 5.29 H 20.1 G 0.15
From 20 observations 2009 Apr. 27-28.

MPEC 2009 - H72


__________________
Page 1 of 1  sorted by
 
Quick Reply

Please log in to post quick replies.



Create your own FREE Forum
Report Abuse
Powered by ActiveBoard